Location: Unspecified
(0.0000°N, 0.0000°E)
Time: 18:00:38
(UTC+00:00)

Courier 1B - Visible Passes

Search period start: 31 July 2021 00:00
Search period end: 10 August 2021 00:00
Orbit: 962 x 1209 km, 28.3° (Epoch: 30 July)

Date Brightness Start Highest point End Pass type
(mag) Time Alt. Az. Time Alt. Az. Time Alt. Az.
31 Jul 7.6 04:15:31 52° SSW 04:15:31 52° SSW 04:21:30 10° SE visible
01 Aug 9.3 03:25:53 22° SE 03:25:53 22° SE 03:27:57 10° SE visible
01 Aug 8.8 05:12:50 16° WSW 05:15:39 21° SSW 05:20:20 10° SSE visible
01 Aug 10.6 18:43:03 10° NNW 18:43:57 10° NNW 18:44:51 10° N visible
02 Aug 8.6 04:23:06 27° S 04:23:06 27° S 04:27:16 10° SSE visible
03 Aug 9.7 03:33:14 14° SE 03:33:14 14° SE 03:34:03 10° SE visible
03 Aug 9.3 05:20:37 10° SW 05:22:34 11° SSW 05:24:31 10° S visible
04 Aug 9.3 04:30:11 15° S 04:30:11 15° S 04:32:23 10° SSE visible
07 Aug 10.1 20:59:44 10° N 21:01:36 13° N 21:01:36 13° N visible
08 Aug 10.0 20:07:27 10° N 20:09:00 11° NNE 20:10:32 10° NNE visible
09 Aug 9.8 21:04:29 10° NNW 21:07:13 18° N 21:07:13 18° N visible
